User: anonymous   Login
Location: Zilina
(0.0000°N, 18.7333°E)
Time: 08:00:38
(UTC+01:00)
Language:

GPS 2-15 Rocket1 - Orbit

View from above orbital plane
View from above orbital plane
View from above satellite
View from above satellite

Ground track
Ground track

The orbit data is extracted from the following two-line orbital elements,

1 22109U 92058B   19321.88866923 +.00000492 +00000-0 +17900-4 0  9990
2 22109 019.7821 226.9446 0036490 345.4868 014.4497 14.73530415440007
Epoch (UTC): 17 November 2019 21:19:41
Eccentricity: 0.0036490
inclination: 19.7821°
perigee height: 624 km
apogee height: 675 km
right ascension of ascending node: 226.9446°
argument of perigee: 345.4868°
revolutions per day: 14.73530415
mean anomaly at epoch: 14.4497°
orbit number at epoch: 44000

The dashed part of the orbit path shows where the satellite is in the earth's shadow,  

DLR